| time (UTC) | temp C | wind direction | speed KPH | gust KPH | rain 1hr cm | rain 24hr cm | rain mn cm | humidity % | barometer mb |
| 20260906220954 | 34 | 218 | 1.6 | 4.8 | 0.00 | 0.15 | 0.15 | 49 | 1012.6 |
| 20260906220448 | 33 | 211 | 1.6 | 1.6 | 0.00 | 0.15 | 0.15 | 52 | 1012.7 |
| 20260906215949 | 33 | 242 | 3.2 | 4.8 | 0.00 | 0.15 | 0.15 | 50 | 1012.8 |
| 20260906215448 | 33 | 243 | 1.6 | 1.6 | 0.00 | 0.15 | 0.15 | 50 | 1012.5 |
| 20260906214946 | 33 | 236 | 1.6 | 1.6 | 0.00 | 0.15 | 0.15 | 50 | 1012.7 |
| 20260906214446 | 33 | 250 | 1.6 | 1.6 | 0.00 | 0.15 | 0.15 | 51 | 1012.5 |
| 20260906213945 | 33 | 259 | 0.0 | 0.0 | 0.00 | 0.15 | 0.15 | 51 | 1012.6 |
| 20260906213440 | 33 | 260 | 0.0 | 0.0 | 0.00 | 0.15 | 0.15 | 50 | 1012.7 |
| 20260906212938 | 33 | 266 | 0.0 | 0.0 | 0.00 | 0.15 | 0.15 | 50 | 1012.6 |
| 20260906212433 | 33 | 236 | 3.2 | 4.8 | 0.00 | 0.15 | 0.15 | 48 | 1012.6 |
| 20260906211928 | 33 | 198 | 3.2 | 4.8 | 0.00 | 0.15 | 0.15 | 48 | 1012.7 |
| 20260906211428 | 33 | 257 | 1.6 | 1.6 | 0.00 | 0.15 | 0.15 | 50 | 1013.0 |
| 20260906210923 | 33 | 285 | 0.0 | 0.0 | 0.00 | 0.15 | 0.15 | 50 | 1012.5 |
| 20260906210419 | 33 | 268 | 0.0 | 0.0 | 0.00 | 0.15 | 0.15 | 48 | 1012.6 |
| 20260906205912 | 33 | 253 | 0.0 | 0.0 | 0.00 | 0.15 | 0.15 | 47 | 1012.7 |
| 20260906205409 | 34 | 211 | 1.6 | 1.6 | 0.00 | 0.15 | 0.15 | 46 | 1013.1 |
| 20260906204904 | 32 | 250 | 0.0 | 1.6 | 0.00 | 0.15 | 0.15 | 50 | 1013.0 |
| 20260906204403 | 31 | 247 | 0.0 | 1.6 | 0.00 | 0.15 | 0.15 | 53 | 1013.2 |
| 20260906203903 | 31 | 189 | 3.2 | 4.8 | 0.00 | 0.15 | 0.15 | 58 | 1013.2 |
| 20260906203358 | 30 | 146 | 4.8 | 6.4 | 0.00 | 0.15 | 0.15 | 57 | 1013.3 |
| 20260906202856 | 30 | 192 | 9.7 | 11.3 | 0.00 | 0.15 | 0.15 | 58 | 1013.5 |
| 20260906202355 | 30 | 95 | 4.8 | 6.4 | 0.00 | 0.15 | 0.15 | 58 | 1013.7 |
| 20260906201855 | 30 | 91 | 6.4 | 8.0 | 0.00 | 0.15 | 0.15 | 59 | 1013.8 |
| 20260906201349 | 31 | 55 | 9.7 | 16.1 | 0.00 | 0.15 | 0.15 | 57 | 1014.1 |
| 20260906200846 | 31 | 8 | 9.7 | 11.3 | 0.00 | 0.15 | 0.15 | 54 | 1014.0 |
| 20260906200342 | 31 | 270 | 4.8 | 8.0 | 0.00 | 0.15 | 0.15 | 57 | 1014.0 |
| 20260906195842 | 31 | 147 | 4.8 | 6.4 | 0.00 | 0.15 | 0.15 | 61 | 1014.0 |
| 20260906195338 | 32 | 251 | 1.6 | 1.6 | 0.00 | 0.15 | 0.15 | 57 | 1013.6 |
| 20260906194834 | 31 | 229 | 3.2 | 4.8 | 0.00 | 0.15 | 0.15 | 55 | 1013.4 |
| 20260906194329 | 32 | 296 | 3.2 | 4.8 | 0.00 | 0.15 | 0.15 | 56 | 1013.5 |
| 20260906193824 | 32 | 314 | 0.0 | 1.6 | 0.00 | 0.15 | 0.15 | 58 | 1013.2 |
| 20260906193320 | 31 | 143 | 3.2 | 4.8 | 0.00 | 0.15 | 0.15 | 59 | 1013.4 |
| 20260906192815 | 32 | 327 | 1.6 | 1.6 | 0.00 | 0.15 | 0.15 | 69 | 1013.4 |
| 20260906192310 | 31 | 251 | 3.2 | 4.8 | 0.00 | 0.15 | 0.15 | 67 | 1013.4 |
| 20260906191809 | 29 | 15 | 4.8 | 6.4 | 0.00 | 0.15 | 0.15 | 69 | 1013.4 |
| 20260906191303 | 28 | 271 | 3.2 | 6.4 | 0.00 | 0.15 | 0.15 | 72 | 1013.6 |
| 20260906190758 | 27 | 327 | 1.6 | 4.8 | 0.00 | 0.15 | 0.15 | 74 | 1013.6 |
| 20260906190257 | 27 | 340 | 1.6 | 4.8 | 0.00 | 0.15 | 0.15 | 69 | 1014.0 |
| 20260906185757 | 26 | 291 | 3.2 | 4.8 | 0.00 | 0.15 | 0.15 | 72 | 1013.8 |
| 20260906185256 | 26 | 12 | 1.6 | 1.6 | 0.00 | 0.15 | 0.15 | 83 | 1013.8 |
| 20260906184751 | 26 | 44 | 4.8 | 4.8 | 0.00 | 0.15 | 0.15 | 82 | 1013.8 |
| 20260906184246 | 25 | 280 | 6.4 | 8.0 | 0.00 | 0.15 | 0.15 | 81 | 1013.9 |
| 20260906183741 | 23 | 48 | 3.2 | 4.8 | 0.13 | 0.15 | 0.15 | 86 | 1013.8 |
| 20260906183238 | 24 | 10 | 3.2 | 4.8 | 0.30 | 0.15 | 0.15 | 83 | 1014.1 |
| 20260906182738 | 24 | 300 | 3.2 | 4.8 | 0.18 | 0.13 | 0.13 | 83 | 1014.2 |
| 20260906182234 | 25 | 314 | 3.2 | 6.4 | 0.00 | 0.10 | 0.10 | 76 | 1014.2 |
| 20260906181729 | 26 | 92 | 3.2 | 4.8 | 0.30 | 0.10 | 0.10 | 78 | 1014.2 |
| 20260906181225 | 27 | 273 | 11.3 | 17.7 | 0.61 | 0.10 | 0.10 | 69 | 1014.2 |
| 20260906180719 | 28 | 131 | 3.2 | 6.4 | 0.30 | 0.05 | 0.05 | 70 | 1014.2 |
| 20260906180214 | 33 | 206 | 3.2 | 6.4 | 0.00 | 0.00 | 0.00 | 57 | 1014.5 |
| 20260906175712 | 39 | 291 | 11.3 | 12.9 | 0.00 | 0.00 | 0.00 | 37 | 1014.2 |
| 20260906175208 | 40 | 207 | 0.0 | 0.0 | 0.00 | 0.00 | 0.00 | 35 | 1014.0 |
| 20260906174706 | 39 | 232 | 0.0 | 0.0 | 0.00 | 0.00 | 0.00 | 36 | 1014.2 |
| 20260906174201 | 37 | 200 | 0.0 | 0.0 | 0.00 | 0.00 | 0.00 | 40 | 1014.2 |
| 20260906173656 | 37 | 253 | 0.0 | 0.0 | 0.00 | 0.00 | 0.00 | 42 | 1014.5 |
| 20260906173152 | 38 | 195 | 0.0 | 0.0 | 0.00 | 0.00 | 0.00 | 39 | 1014.3 |
| 20260906172651 | 38 | 233 | 0.0 | 0.0 | 0.00 | 0.00 | 0.00 | 38 | 1014.4 |
| 20260906172147 | 38 | 249 | 0.0 | 0.0 | 0.00 | 0.00 | 0.00 | 37 | 1014.8 |
| 20260906171647 | 38 | 265 | 0.0 | 0.0 | 0.00 | 0.00 | 0.00 | 38 | 1014.8 |
| 20260906171142 | 38 | 261 | 0.0 | 0.0 | 0.00 | 0.00 | 0.00 | 38 | 1014.8 |
| 20260906170638 | 37 | 275 | 0.0 | 0.0 | 0.00 | 0.00 | 0.00 | 39 | 1014.9 |
| 20260906170137 | 38 | 259 | 0.0 | 0.0 | 0.00 | 0.00 | 0.00 | 38 | 1014.9 |
| 20260906165634 | 38 | 2 | 0.0 | 0.0 | 0.00 | 0.00 | 0.00 | 38 | 1014.9 |
| 20260906165129 | 37 | 268 | 0.0 | 0.0 | 0.00 | 0.00 | 0.00 | 38 | 1015.1 |
| 20260906164627 | 37 | 241 | 0.0 | 0.0 | 0.00 | 0.00 | 0.00 | 39 | 1015.2 |
| 20260906164123 | 37 | 293 | 0.0 | 0.0 | 0.00 | 0.00 | 0.00 | 39 | 1015.4 |
| 20260906163619 | 37 | 253 | 0.0 | 0.0 | 0.00 | 0.00 | 0.00 | 39 | 1015.1 |
| 20260906163115 | 37 | 295 | 0.0 | 0.0 | 0.00 | 0.00 | 0.00 | 38 | 1015.5 |
| 20260906162612 | 36 | 256 | 0.0 | 0.0 | 0.00 | 0.00 | 0.00 | 41 | 1015.2 |
| 20260906162107 | 37 | 275 | 0.0 | 0.0 | 0.00 | 0.00 | 0.00 | 39 | 1015.2 |
| 20260906161607 | 37 | 349 | 0.0 | 0.0 | 0.00 | 0.00 | 0.00 | 38 | 1015.3 |
| 20260906161105 | 36 | 257 | 0.0 | 0.0 | 0.00 | 0.00 | 0.00 | 40 | 1015.2 |
| 20260906160604 | 37 | 243 | 0.0 | 0.0 | 0.00 | 0.00 | 0.00 | 40 | 1015.3 |
| 20260906160103 | 36 | 255 | 0.0 | 0.0 | 0.00 | 0.00 | 0.00 | 40 | 1015.3 |
| 20260906155601 | 35 | 261 | 0.0 | 0.0 | 0.00 | 0.00 | 0.00 | 46 | 1015.5 |
| 20260906155058 | 36 | 313 | 0.0 | 0.0 | 0.00 | 0.00 | 0.00 | 43 | 1015.3 |
| 20260906154552 | 36 | 302 | 0.0 | 0.0 | 0.00 | 0.00 | 0.00 | 44 | 1015.1 |
| 20260906154051 | 36 | 250 | 0.0 | 0.0 | 0.00 | 0.00 | 0.00 | 45 | 1015.4 |
| 20260906153550 | 35 | 171 | 0.0 | 0.0 | 0.00 | 0.00 | 0.00 | 47 | 1015.0 |
| 20260906153045 | 35 | 206 | 0.0 | 0.0 | 0.00 | 0.00 | 0.00 | 48 | 1015.3 |
| 20260906152545 | 35 | 182 | 0.0 | 0.0 | 0.00 | 0.00 | 0.00 | 51 | 1015.3 |
| 20260906152044 | 33 | 309 | 0.0 | 0.0 | 0.00 | 0.00 | 0.00 | 51 | 1015.1 |
| 20260906151540 | 33 | 195 | 0.0 | 0.0 | 0.00 | 0.00 | 0.00 | 51 | 1015.3 |
| 20260906151036 | 33 | 189 | 0.0 | 0.0 | 0.00 | 0.00 | 0.00 | 52 | 1015.3 |
| 20260906150531 | 33 | 211 | 0.0 | 0.0 | 0.00 | 0.00 | 0.00 | 53 | 1015.5 |
| 20260906150026 | 32 | 74 | 0.0 | 0.0 | 0.00 | 0.00 | 0.00 | 54 | 1015.2 |
| 20260906145524 | 32 | 207 | 0.0 | 0.0 | 0.00 | 0.00 | 0.00 | 55 | 1015.4 |
| 20260906145020 | 32 | 124 | 0.0 | 0.0 | 0.00 | 0.00 | 0.00 | 58 | 1015.4 |
| 20260906144515 | 31 | 201 | 0.0 | 0.0 | 0.00 | 0.00 | 0.00 | 58 | 1015.4 |
| 20260906144010 | 30 | 234 | 0.0 | 0.0 | 0.00 | 0.00 | 0.00 | 61 | 1015.6 |
| 20260906143505 | 30 | 207 | 0.0 | 0.0 | 0.00 | 0.00 | 0.00 | 60 | 1015.4 |
| 20260906143002 | 30 | 227 | 0.0 | 0.0 | 0.00 | 0.00 | 0.00 | 61 | 1015.5 |
| 20260906142500 | 30 | 205 | 0.0 | 0.0 | 0.00 | 0.00 | 0.00 | 60 | 1015.5 |
| 20260906141955 | 31 | 246 | 0.0 | 0.0 | 0.00 | 0.00 | 0.00 | 58 | 1015.6 |
| 20260906141454 | 30 | 199 | 0.0 | 0.0 | 0.00 | 0.00 | 0.00 | 60 | 1015.5 |
| 20260906140950 | 29 | 219 | 0.0 | 0.0 | 0.00 | 0.00 | 0.00 | 63 | 1015.4 |
| 20260906140444 | 29 | 313 | 0.0 | 0.0 | 0.00 | 0.00 | 0.00 | 64 | 1015.4 |
| 20260906135942 | 29 | 262 | 0.0 | 0.0 | 0.00 | 0.00 | 0.00 | 64 | 1015.6 |
| 20260906135441 | 30 | 246 | 0.0 | 0.0 | 0.00 | 0.00 | 0.00 | 63 | 1015.3 |
| 20260906134937 | 28 | 174 | 0.0 | 0.0 | 0.00 | 0.00 | 0.00 | 67 | 1015.2 |
| 20260906134432 | 27 | 194 | 0.0 | 0.0 | 0.00 | 0.00 | 0.00 | 69 | 1015.2 |
| 20260906133927 | 27 | 270 | 0.0 | 0.0 | 0.00 | 0.00 | 0.00 | 71 | 1015.2 |
| 20260906133423 | 27 | 212 | 0.0 | 0.0 | 0.00 | 0.00 | 0.00 | 71 | 1015.2 |
| 20260906132919 | 26 | 200 | 0.0 | 0.0 | 0.00 | 0.00 | 0.00 | 73 | 1015.2 |
| 20260906132414 | 26 | 250 | 0.0 | 0.0 | 0.00 | 0.00 | 0.00 | 76 | 1015.1 |
| 20260906131909 | 25 | 241 | 0.0 | 0.0 | 0.00 | 0.00 | 0.00 | 80 | 1015.0 |
| 20260906131404 | 25 | 293 | 0.0 | 0.0 | 0.00 | 0.00 | 0.00 | 82 | 1014.9 |
| 20260906130900 | 23 | 250 | 0.0 | 0.0 | 0.00 | 0.00 | 0.00 | 88 | 1015.1 |
| 20260906130359 | 22 | 250 | 0.0 | 0.0 | 0.00 | 0.00 | 0.00 | 92 | 1014.9 |
| 20260906125859 | 21 | 258 | 0.0 | 0.0 | 0.00 | 0.00 | 0.00 | 93 | 1014.9 |
| 20260906125356 | 21 | 277 | 0.0 | 0.0 | 0.00 | 0.00 | 0.00 | 94 | 1014.7 |
| 20260906124851 | 21 | 279 | 0.0 | 0.0 | 0.00 | 0.00 | 0.00 | 94 | 1014.7 |
| 20260906124347 | 21 | 272 | 0.0 | 0.0 | 0.00 | 0.00 | 0.00 | 95 | 1014.7 |
| 20260906123846 | 20 | 273 | 0.0 | 0.0 | 0.00 | 0.00 | 0.00 | 95 | 1014.7 |
| 20260906123341 | 20 | 264 | 0.0 | 0.0 | 0.00 | 0.00 | 0.00 | 95 | 1014.8 |
| 20260906122840 | 20 | 277 | 0.0 | 0.0 | 0.00 | 0.00 | 0.00 | 95 | 1014.5 |
| 20260906122335 | 20 | 285 | 0.0 | 0.0 | 0.00 | 0.00 | 0.00 | 95 | 1014.6 |
| 20260906121832 | 20 | 288 | 0.0 | 0.0 | 0.00 | 0.00 | 0.00 | 95 | 1014.4 |
| 20260906121328 | 20 | 253 | 0.0 | 0.0 | 0.00 | 0.00 | 0.00 | 95 | 1014.7 |
| 20260906120824 | 20 | 261 | 0.0 | 0.0 | 0.00 | 0.00 | 0.00 | 95 | 1014.4 |
| 20260906120320 | 20 | 280 | 0.0 | 0.0 | 0.00 | 0.00 | 0.00 | 95 | 1014.5 |
| 20260906115816 | 20 | 275 | 0.0 | 0.0 | 0.00 | 0.00 | 0.00 | 95 | 1014.4 |
| 20260906115311 | 20 | 254 | 0.0 | 0.0 | 0.00 | 0.00 | 0.00 | 95 | 1014.4 |
| 20260906114810 | 20 | 245 | 0.0 | 0.0 | 0.00 | 0.00 | 0.00 | 95 | 1014.2 |
| 20260906114306 | 20 | 279 | 0.0 | 0.0 | 0.00 | 0.00 | 0.00 | 94 | 1014.3 |
| 20260906113806 | 20 | 270 | 0.0 | 0.0 | 0.00 | 0.00 | 0.00 | 94 | 1014.4 |
| 20260906113305 | 20 | 283 | 0.0 | 0.0 | 0.00 | 0.00 | 0.00 | 94 | 1014.3 |
| 20260906112800 | 20 | 269 | 0.0 | 0.0 | 0.00 | 0.00 | 0.00 | 94 | 1014.3 |
| 20260906112257 | 20 | 261 | 0.0 | 0.0 | 0.00 | 0.00 | 0.00 | 94 | 1014.2 |
| 20260906111756 | 20 | 279 | 0.0 | 0.0 | 0.00 | 0.00 | 0.00 | 94 | 1014.4 |
| 20260906111255 | 20 | 282 | 0.0 | 0.0 | 0.00 | 0.00 | 0.00 | 94 | 1014.2 |
| 20260906110751 | 20 | 292 | 0.0 | 0.0 | 0.00 | 0.00 | 0.00 | 94 | 1014.2 |
| 20260906110247 | 20 | 259 | 0.0 | 0.0 | 0.00 | 0.00 | 0.00 | 94 | 1014.0 |
| 20260906105745 | 20 | 256 | 0.0 | 0.0 | 0.00 | 0.00 | 0.00 | 94 | 1014.1 |
| 20260906105241 | 20 | 265 | 0.0 | 0.0 | 0.00 | 0.00 | 0.00 | 94 | 1014.0 |
| 20260906104736 | 20 | 265 | 0.0 | 0.0 | 0.00 | 0.00 | 0.00 | 94 | 1014.0 |
| 20260906104235 | 20 | 265 | 0.0 | 0.0 | 0.00 | 0.00 | 0.00 | 93 | 1013.9 |
| 20260906103734 | 20 | 274 | 0.0 | 0.0 | 0.00 | 0.00 | 0.00 | 93 | 1014.1 |
| 20260906103234 | 20 | 273 | 0.0 | 0.0 | 0.00 | 0.00 | 0.00 | 93 | 1014.0 |
| 20260906102729 | 20 | 273 | 0.0 | 0.0 | 0.00 | 0.00 | 0.00 | 93 | 1013.9 |
| 20260906102228 | 20 | 273 | 0.0 | 0.0 | 0.00 | 0.00 | 0.00 | 93 | 1014.0 |
| 20260906101724 | 20 | 270 | 0.0 | 0.0 | 0.00 | 0.00 | 0.00 | 93 | 1014.0 |
| 20260906101213 | 20 | 259 | 0.0 | 0.0 | 0.00 | 0.00 | 0.00 | 93 | 1014.0 |
| 20260906100708 | 21 | 259 | 0.0 | 0.0 | 0.00 | 0.00 | 0.00 | 92 | 1013.8 |
| 20260906100203 | 21 | 282 | 0.0 | 0.0 | 0.00 | 0.00 | 0.00 | 92 | 1013.9 |
| 20260906095703 | 21 | 284 | 0.0 | 0.0 | 0.00 | 0.00 | 0.00 | 92 | 1013.7 |
| 20260906095158 | 20 | 274 | 0.0 | 0.0 | 0.00 | 0.00 | 0.00 | 92 | 1013.9 |
| 20260906094657 | 21 | 268 | 0.0 | 0.0 | 0.00 | 0.00 | 0.00 | 92 | 1013.9 |
| 20260906094153 | 21 | 265 | 0.0 | 0.0 | 0.00 | 0.00 | 0.00 | 92 | 1013.7 |
| 20260906093650 | 21 | 266 | 0.0 | 0.0 | 0.00 | 0.00 | 0.00 | 92 | 1013.8 |
| 20260906093149 | 21 | 266 | 0.0 | 0.0 | 0.00 | 0.00 | 0.00 | 92 | 1013.8 |
| 20260906092645 | 21 | 266 | 0.0 | 0.0 | 0.00 | 0.00 | 0.00 | 92 | 1013.7 |
| 20260906092144 | 21 | 273 | 0.0 | 0.0 | 0.00 | 0.00 | 0.00 | 91 | 1013.7 |
| 20260906091641 | 21 | 252 | 0.0 | 0.0 | 0.00 | 0.00 | 0.00 | 91 | 1013.8 |
| 20260906091137 | 21 | 281 | 0.0 | 0.0 | 0.00 | 0.00 | 0.00 | 91 | 1013.6 |
| 20260906090632 | 21 | 258 | 0.0 | 0.0 | 0.00 | 0.00 | 0.00 | 91 | 1013.5 |
| 20260906090126 | 21 | 272 | 0.0 | 0.0 | 0.00 | 0.00 | 0.00 | 91 | 1013.5 |
| 20260906085626 | 21 | 271 | 0.0 | 0.0 | 0.00 | 0.00 | 0.00 | 91 | 1013.4 |
| 20260906085120 | 21 | 273 | 0.0 | 0.0 | 0.00 | 0.00 | 0.00 | 91 | 1013.3 |
| 20260906084615 | 21 | 276 | 0.0 | 0.0 | 0.00 | 0.00 | 0.00 | 90 | 1013.3 |
| 20260906084114 | 21 | 235 | 0.0 | 0.0 | 0.00 | 0.00 | 0.00 | 90 | 1013.4 |
| 20260906083610 | 21 | 278 | 0.0 | 0.0 | 0.00 | 0.00 | 0.00 | 90 | 1013.4 |
| 20260906083109 | 21 | 272 | 0.0 | 0.0 | 0.00 | 0.00 | 0.00 | 90 | 1013.4 |
| 20260906082605 | 21 | 248 | 0.0 | 0.0 | 0.00 | 0.00 | 0.00 | 90 | 1013.1 |
| 20260906082100 | 21 | 262 | 0.0 | 0.0 | 0.00 | 0.00 | 0.00 | 89 | 1013.2 |
| 20260906081556 | 21 | 261 | 0.0 | 0.0 | 0.00 | 0.00 | 0.00 | 89 | 1013.2 |
| 20260906081051 | 21 | 278 | 0.0 | 0.0 | 0.00 | 0.00 | 0.00 | 89 | 1013.3 |
| 20260906080548 | 21 | 277 | 0.0 | 0.0 | 0.00 | 0.00 | 0.00 | 89 | 1013.3 |
| 20260906080043 | 21 | 255 | 0.0 | 0.0 | 0.00 | 0.00 | 0.00 | 89 | 1013.2 |
| 20260906075543 | 21 | 252 | 0.0 | 0.0 | 0.00 | 0.00 | 0.00 | 89 | 1013.2 |
| 20260906075037 | 22 | 252 | 0.0 | 0.0 | 0.00 | 0.00 | 0.00 | 88 | 1013.1 |
| 20260906074532 | 22 | 268 | 0.0 | 0.0 | 0.00 | 0.00 | 0.00 | 88 | 1013.5 |
| 20260906074031 | 22 | 280 | 0.0 | 0.0 | 0.00 | 0.00 | 0.00 | 88 | 1013.4 |
| 20260906073526 | 22 | 33 | 0.0 | 0.0 | 0.00 | 0.00 | 0.00 | 87 | 1013.2 |
| 20260906073022 | 22 | 253 | 0.0 | 0.0 | 0.00 | 0.00 | 0.00 | 87 | 1013.5 |
| 20260906072517 | 22 | 281 | 0.0 | 0.0 | 0.00 | 0.00 | 0.00 | 87 | 1013.5 |
| 20260906072013 | 22 | 273 | 0.0 | 0.0 | 0.00 | 0.00 | 0.00 | 87 | 1013.6 |
| 20260906071509 | 22 | 265 | 0.0 | 0.0 | 0.00 | 0.00 | 0.00 | 87 | 1013.3 |
| 20260906071004 | 22 | 245 | 0.0 | 0.0 | 0.00 | 0.00 | 0.00 | 87 | 1013.5 |
| 20260906070500 | 22 | 278 | 0.0 | 0.0 | 0.00 | 0.00 | 0.00 | 87 | 1013.7 |
| 20260906065956 | 22 | 273 | 0.0 | 0.0 | 0.00 | 0.00 | 0.00 | 86 | 1013.4 |
| 20260906065455 | 22 | 256 | 0.0 | 0.0 | 0.00 | 0.00 | 0.00 | 86 | 1013.4 |
| 20260906064951 | 22 | 283 | 0.0 | 0.0 | 0.00 | 0.00 | 0.00 | 86 | 1013.6 |
| 20260906064448 | 22 | 285 | 0.0 | 0.0 | 0.00 | 0.00 | 0.00 | 86 | 1013.7 |
| 20260906063947 | 22 | 253 | 0.0 | 0.0 | 0.00 | 0.00 | 0.00 | 86 | 1013.5 |
| 20260906063443 | 22 | 260 | 0.0 | 0.0 | 0.00 | 0.00 | 0.00 | 86 | 1013.6 |
| 20260906062943 | 22 | 252 | 0.0 | 0.0 | 0.00 | 0.00 | 0.00 | 86 | 1013.5 |
| 20260906062438 | 22 | 246 | 0.0 | 0.0 | 0.00 | 0.00 | 0.00 | 86 | 1013.5 |
| 20260906061934 | 22 | 287 | 0.0 | 0.0 | 0.00 | 0.00 | 0.00 | 86 | 1013.5 |
| 20260906061430 | 22 | 281 | 0.0 | 0.0 | 0.00 | 0.00 | 0.00 | 85 | 1013.6 |
| 20260906060930 | 22 | 246 | 0.0 | 0.0 | 0.00 | 0.00 | 0.00 | 85 | 1013.7 |
| 20260906060427 | 22 | 236 | 0.0 | 0.0 | 0.00 | 0.00 | 0.00 | 85 | 1013.5 |
| 20260906055923 | 22 | 279 | 0.0 | 0.0 | 0.00 | 0.00 | 0.00 | 85 | 1013.5 |
| 20260906055419 | 22 | 246 | 0.0 | 0.0 | 0.00 | 0.00 | 0.00 | 85 | 1013.7 |
| 20260906054914 | 23 | 268 | 0.0 | 0.0 | 0.00 | 0.00 | 0.00 | 84 | 1013.5 |
| 20260906054408 | 23 | 270 | 0.0 | 0.0 | 0.00 | 0.00 | 0.00 | 84 | 1013.6 |
| 20260906053905 | 23 | 270 | 0.0 | 0.0 | 0.00 | 0.00 | 0.00 | 84 | 1013.5 |
| 20260906053400 | 23 | 266 | 0.0 | 0.0 | 0.00 | 0.00 | 0.00 | 83 | 1013.7 |
| 20260906052856 | 23 | 283 | 0.0 | 0.0 | 0.00 | 0.00 | 0.00 | 83 | 1013.5 |
| 20260906052352 | 23 | 258 | 0.0 | 0.0 | 0.00 | 0.00 | 0.00 | 83 | 1013.5 |
| 20260906051849 | 23 | 257 | 0.0 | 0.0 | 0.00 | 0.00 | 0.00 | 83 | 1013.5 |
| 20260906051348 | 23 | 269 | 0.0 | 0.0 | 0.00 | 0.00 | 0.00 | 82 | 1013.4 |
| 20260906050844 | 23 | 268 | 0.0 | 0.0 | 0.00 | 0.00 | 0.00 | 82 | 1013.5 |
| 20260906050339 | 23 | 264 | 0.0 | 0.0 | 0.00 | 0.00 | 0.00 | 82 | 1013.5 |
| 20260906045838 | 23 | 284 | 0.0 | 0.0 | 0.00 | 0.00 | 0.00 | 82 | 1013.5 |
| 20260906045332 | 23 | 228 | 0.0 | 0.0 | 0.00 | 0.00 | 0.00 | 82 | 1013.3 |
| 20260906044829 | 23 | 250 | 0.0 | 0.0 | 0.00 | 0.00 | 0.00 | 81 | 1013.5 |
| 20260906044328 | 24 | 279 | 0.0 | 0.0 | 0.00 | 0.00 | 0.00 | 80 | 1013.4 |
| 20260906043826 | 23 | 281 | 0.0 | 0.0 | 0.00 | 0.00 | 0.00 | 81 | 1013.4 |
| 20260906043320 | 24 | 247 | 0.0 | 0.0 | 0.00 | 0.00 | 0.00 | 80 | 1013.6 |
| 20260906042820 | 24 | 272 | 0.0 | 0.0 | 0.00 | 0.00 | 0.00 | 80 | 1013.6 |
| 20260906042319 | 24 | 281 | 0.0 | 0.0 | 0.00 | 0.00 | 0.00 | 80 | 1013.6 |
| 20260906041815 | 24 | 282 | 0.0 | 0.0 | 0.00 | 0.00 | 0.00 | 80 | 1013.6 |
| 20260906041310 | 24 | 275 | 0.0 | 0.0 | 0.00 | 0.00 | 0.00 | 80 | 1013.5 |
| 20260906040805 | 24 | 255 | 0.0 | 0.0 | 0.00 | 0.00 | 0.00 | 80 | 1013.6 |
| 20260906040301 | 24 | 249 | 0.0 | 0.0 | 0.00 | 0.00 | 0.00 | 79 | 1013.4 |
| 20260906035756 | 24 | 265 | 0.0 | 0.0 | 0.00 | 0.00 | 0.00 | 78 | 1013.5 |
| 20260906035252 | 25 | 264 | 0.0 | 0.0 | 0.00 | 0.00 | 0.00 | 78 | 1013.6 |
| 20260906034751 | 25 | 256 | 0.0 | 0.0 | 0.00 | 0.00 | 0.00 | 77 | 1013.2 |
| 20260906034246 | 25 | 296 | 0.0 | 0.0 | 0.00 | 0.00 | 0.00 | 78 | 1013.2 |
| 20260906033742 | 25 | 255 | 0.0 | 0.0 | 0.00 | 0.00 | 0.00 | 77 | 1013.4 |
| 20260906033241 | 25 | 252 | 0.0 | 0.0 | 0.00 | 0.00 | 0.00 | 77 | 1013.1 |
| 20260906032738 | 25 | 272 | 0.0 | 0.0 | 0.00 | 0.00 | 0.00 | 77 | 1013.2 |
| 20260906032238 | 25 | 258 | 0.0 | 0.0 | 0.00 | 0.00 | 0.00 | 77 | 1013.1 |
| 20260906031733 | 25 | 270 | 0.0 | 0.0 | 0.00 | 0.00 | 0.00 | 76 | 1013.2 |
| 20260906031229 | 25 | 290 | 0.0 | 0.0 | 0.00 | 0.00 | 0.00 | 75 | 1013.1 |
| 20260906030729 | 25 | 307 | 0.0 | 0.0 | 0.00 | 0.00 | 0.00 | 75 | 1013.2 |
| 20260906030224 | 25 | 260 | 0.0 | 0.0 | 0.00 | 0.00 | 0.00 | 75 | 1013.4 |
| 20260906025723 | 25 | 268 | 0.0 | 0.0 | 0.00 | 0.00 | 0.00 | 74 | 1013.2 |
| 20260906025218 | 25 | 263 | 0.0 | 0.0 | 0.00 | 0.00 | 0.00 | 75 | 1013.1 |
| 20260906024717 | 25 | 263 | 0.0 | 0.0 | 0.00 | 0.00 | 0.00 | 74 | 1013.0 |
| 20260906024216 | 25 | 263 | 0.0 | 0.0 | 0.00 | 0.00 | 0.00 | 74 | 1013.0 |
| 20260906023712 | 26 | 267 | 0.0 | 0.0 | 0.00 | 0.00 | 0.00 | 73 | 1012.8 |
| 20260906023212 | 26 | 264 | 0.0 | 0.0 | 0.00 | 0.00 | 0.00 | 73 | 1013.0 |
| 20260906022708 | 26 | 280 | 0.0 | 0.0 | 0.00 | 0.00 | 0.00 | 73 | 1012.7 |
| 20260906022203 | 26 | 273 | 0.0 | 0.0 | 0.00 | 0.00 | 0.00 | 72 | 1012.7 |
| 20260906021659 | 26 | 272 | 0.0 | 0.0 | 0.00 | 0.00 | 0.00 | 72 | 1012.6 |
| 20260906021158 | 26 | 272 | 0.0 | 0.0 | 0.00 | 0.00 | 0.00 | 71 | 1012.5 |
| 20260906020653 | 26 | 271 | 0.0 | 0.0 | 0.00 | 0.00 | 0.00 | 71 | 1012.5 |
| 20260906020148 | 26 | 273 | 0.0 | 0.0 | 0.00 | 0.00 | 0.00 | 71 | 1012.2 |
| 20260906015648 | 27 | 271 | 0.0 | 0.0 | 0.00 | 0.00 | 0.00 | 71 | 1012.5 |
| 20260906015147 | 27 | 283 | 0.0 | 0.0 | 0.00 | 0.00 | 0.00 | 70 | 1012.5 |
| 20260906014646 | 27 | 268 | 0.0 | 0.0 | 0.00 | 0.00 | 0.00 | 69 | 1012.3 |
| 20260906014143 | 27 | 263 | 0.0 | 0.0 | 0.00 | 0.00 | 0.00 | 69 | 1012.1 |
| 20260906013638 | 27 | 283 | 0.0 | 0.0 | 0.00 | 0.00 | 0.00 | 68 | 1012.2 |
| 20260906013134 | 27 | 287 | 0.0 | 0.0 | 0.00 | 0.00 | 0.00 | 68 | 1012.2 |
| 20260906012633 | 27 | 278 | 0.0 | 0.0 | 0.00 | 0.00 | 0.00 | 67 | 1012.0 |
| 20260906012128 | 28 | 278 | 0.0 | 0.0 | 0.00 | 0.00 | 0.00 | 67 | 1011.9 |
| 20260906011624 | 28 | 256 | 0.0 | 0.0 | 0.00 | 0.00 | 0.00 | 66 | 1012.1 |
| 20260906011125 | 28 | 281 | 0.0 | 0.0 | 0.00 | 0.00 | 0.00 | 65 | 1011.9 |
| 20260906010620 | 28 | 276 | 0.0 | 0.0 | 0.00 | 0.00 | 0.00 | 64 | 1011.7 |
| 20260906010116 | 28 | 277 | 0.0 | 0.0 | 0.00 | 0.00 | 0.00 | 63 | 1011.7 |
| 20260906005615 | 29 | 240 | 0.0 | 0.0 | 0.00 | 0.00 | 0.00 | 64 | 1011.7 |
| 20260906005115 | 30 | 287 | 0.0 | 0.0 | 0.00 | 0.00 | 0.00 | 60 | 1011.7 |
| 20260906004614 | 30 | 285 | 0.0 | 0.0 | 0.00 | 0.00 | 0.00 | 59 | 1011.6 |
| 20260906004109 | 31 | 277 | 0.0 | 0.0 | 0.00 | 0.00 | 0.00 | 58 | 1011.6 |
| 20260906003604 | 31 | 283 | 0.0 | 0.0 | 0.00 | 0.00 | 0.00 | 57 | 1011.7 |
| 20260906003101 | 31 | 275 | 0.0 | 0.0 | 0.00 | 0.00 | 0.00 | 57 | 1011.8 |
| 20260906002601 | 31 | 257 | 0.0 | 0.0 | 0.00 | 0.00 | 0.00 | 55 | 1011.7 |
| 20260906002055 | 32 | 237 | 0.0 | 0.0 | 0.00 | 0.00 | 0.00 | 53 | 1011.6 |
| 20260906001550 | 32 | 254 | 0.0 | 0.0 | 0.00 | 0.00 | 0.00 | 53 | 1011.6 |
| 20260906001045 | 33 | 262 | 0.0 | 0.0 | 0.00 | 0.00 | 0.00 | 48 | 1011.7 |
| 20260906000541 | 35 | 269 | 0.0 | 0.0 | 0.00 | 0.00 | 0.00 | 43 | 1011.9 |
| 20260906000036 | 35 | 273 | 0.0 | 0.0 | 0.00 | 0.00 | 0.00 | 41 | 1011.7 |
| 20260905235536 | 36 | 271 | 0.0 | 0.0 | 0.00 | 0.00 | 0.00 | 39 | 1011.8 |
| 20260905235031 | 37 | 270 | 0.0 | 0.0 | 0.00 | 0.00 | 0.00 | 37 | 1011.8 |
| 20260905234526 | 37 | 289 | 0.0 | 0.0 | 0.00 | 0.00 | 0.00 | 36 | 1011.9 |
| 20260905234026 | 37 | 268 | 0.0 | 0.0 | 0.00 | 0.00 | 0.00 | 35 | 1011.5 |
| 20260905233521 | 37 | 283 | 1.6 | 1.6 | 0.00 | 0.00 | 0.00 | 35 | 1011.6 |
| 20260905233021 | 37 | 244 | 1.6 | 1.6 | 0.00 | 0.00 | 0.00 | 35 | 1011.7 |
| 20260905232516 | 37 | 280 | 0.0 | 1.6 | 0.00 | 0.00 | 0.00 | 34 | 1011.7 |
| 20260905232012 | 37 | 262 | 0.0 | 0.0 | 0.00 | 0.00 | 0.00 | 34 | 1011.8 |
| 20260905231507 | 38 | 209 | 1.6 | 1.6 | 0.00 | 0.00 | 0.00 | 36 | 1011.8 |
| 20260905231004 | 38 | 315 | 0.0 | 1.6 | 0.00 | 0.00 | 0.00 | 35 | 1011.7 |
| 20260905230502 | 38 | 223 | 1.6 | 1.6 | 0.00 | 0.00 | 0.00 | 35 | 1011.5 |
| 20260905230000 | 38 | 268 | 1.6 | 1.6 | 0.00 | 0.00 | 0.00 | 36 | 1011.6 |
| 20260905225456 | 38 | 269 | 3.2 | 4.8 | 0.00 | 0.00 | 0.00 | 33 | 1011.7 |
| 20260905224950 | 38 | 258 | 3.2 | 4.8 | 0.00 | 0.00 | 0.00 | 32 | 1011.7 |
| 20260905224446 | 38 | 239 | 1.6 | 1.6 | 0.00 | 0.00 | 0.00 | 33 | 1011.6 |
| 20260905223945 | 38 | 276 | 1.6 | 1.6 | 0.00 | 0.00 | 0.00 | 35 | 1011.7 |
| 20260905223443 | 38 | 312 | 3.2 | 6.4 | 0.00 | 0.00 | 0.00 | 34 | 1011.5 |
| 20260905222938 | 38 | 226 | 3.2 | 4.8 | 0.00 | 0.00 | 0.00 | 33 | 1011.6 |
| 20260905222438 | 38 | 275 | 0.0 | 1.6 | 0.00 | 0.00 | 0.00 | 34 | 1011.6 |
| 20260905221933 | 38 | 232 | 3.2 | 4.8 | 0.00 | 0.00 | 0.00 | 33 | 1011.7 |
| 20260905221430 | 38 | 184 | 3.2 | 4.8 | 0.00 | 0.00 | 0.00 | 34 | 1011.7 |